When you browse on this site, cookies collect data to enhance your experience and personalize the content and advertising you see.
Visit our Privacy Policy to learn more. By continuing to use the site, you agree to this use of cookies and data.
  • In Latvia
  • List of Countries
  • For 7 days
  • Water Temperature
  • Satellite Maps
  • Weather Map
  • Weather Widgets
  • user-avatar
    Login

    Hourly Weather Fakuoka

    Today, 15 December, Saturday

    Time Temperature Precipitation Wind Pressure Humidity
    00:00 +5°C° 0 mm 2 mps 751 mmHg 57%
    01:00 +5°C° 0 mm 2 mps 751 mmHg 58%
    02:00 +5°C° 0 mm 2 mps 751 mmHg 59%
    03:00 +5°C° 0 mm 2 mps 751 mmHg 61%
    04:00 +5°C° 0 mm 2 mps 751 mmHg 63%
    05:00 +5°C° 0 mm 2 mps 751 mmHg 64%
    06:00 +5°C° 0 mm 2 mps 751 mmHg 66%
    07:00 +5°C° 0 mm 2 mps 751 mmHg 64%
    08:00 +6°C° 0 mm 2 mps 751 mmHg 62%
    09:00 +8°C° 0 mm 1 mps 752 mmHg 58%
    10:00 +9°C° 0 mm 1 mps 751 mmHg 55%
    11:00 +10°C° 0 mm 1 mps 751 mmHg 53%
    12:00 +11°C° 0 mm 1 mps 751 mmHg 50%
    13:00 +11°C° 0 mm 1 mps 751 mmHg 50%
    14:00 +10°C° 0 mm 2 mps 750 mmHg 49%
    15:00 +12°C° 0 mm 2 mps 750 mmHg 48%
    16:00 +10°C° 0 mm 2 mps 750 mmHg 52%
    17:00 +10°C° 0 mm 1 mps 750 mmHg 56%
    18:00 +9°C° 0 mm 1 mps 750 mmHg 60%
    19:00 +9°C° 0 mm 1 mps 750 mmHg 62%
    20:00 +9°C° 0 mm 1 mps 750 mmHg 65%
    21:00 +8°C° 0 mm 1 mps 749 mmHg 67%
    22:00 +8°C° 0 mm 1 mps 749 mmHg 69%
    23:00 +8°C° 0 mm 1 mps 749 mmHg 70%

    Tomorrow, 16 December, Sunday

    Time Temperature Precipitation Wind Pressure Humidity
    00:00 +7°C° 0 mm 1 mps 749 mmHg 72%
    01:00 +7°C° 0 mm 1 mps 748 mmHg 71%
    02:00 +7°C° 0 mm 1 mps 748 mmHg 70%
    03:00 +7°C° 0 mm 1 mps 747 mmHg 69%
    04:00 +6°C° 0 mm 2 mps 747 mmHg 68%
    05:00 +6°C° 0 mm 2 mps 747 mmHg 66%
    06:00 +6°C° 0 mm 2 mps 746 mmHg 65%
    07:00 +7°C° 0.1 mm 2 mps 746 mmHg 65%
    08:00 +7°C° 0.1 mm 2 mps 746 mmHg 64%
    09:00 +8°C° 0.1 mm 2 mps 746 mmHg 64%
    10:00 +8°C° 0.4 mm 2 mps 745 mmHg 67%
    11:00 +8°C° 0.4 mm 2 mps 745 mmHg 70%
    12:00 +8°C° 0.4 mm 2 mps 745 mmHg 74%
    13:00 +10°C° 0.3 mm 1 mps 744 mmHg 74%
    14:00 +10°C° 0.3 mm 1 mps 743 mmHg 74%
    15:00 +11°C° 0.3 mm 1 mps 743 mmHg 75%
    16:00 +9°C° 1.1 mm 2 mps 743 mmHg 79%
    17:00 +9°C° 1.1 mm 2 mps 742 mmHg 83%
    18:00 +8°C° 1.1 mm 3 mps 742 mmHg 87%
    19:00 +8°C° 0.4 mm 2 mps 742 mmHg 86%
    20:00 +8°C° 0.4 mm 2 mps 742 mmHg 85%
    21:00 +9°C° 0.4 mm 1 mps 742 mmHg 85%
    22:00 +8°C° 0 mm 2 mps 742 mmHg 84%
    23:00 +8°C° 0 mm 2 mps 741 mmHg 84%

    Day after tomorrow, 17 December, Monday

    Time Temperature Precipitation Wind Pressure Humidity
    00:00 +8°C° 0 mm 2 mps 741 mmHg 84%
    01:00 +8°C° 0 mm 2 mps 741 mmHg 83%
    02:00 +8°C° 0 mm 2 mps 741 mmHg 82%
    03:00 +8°C° 0 mm 2 mps 741 mmHg 82%
    04:00 +8°C° 0.3 mm 3 mps 741 mmHg 82%
    05:00 +7°C° 0.3 mm 4 mps 740 mmHg 83%
    06:00 +7°C° 0.3 mm 5 mps 740 mmHg 83%
    07:00 +7°C° 0.1 mm 6 mps 741 mmHg 78%
    08:00 +8°C° 0.1 mm 6 mps 741 mmHg 73%
    09:00 +8°C° 0.1 mm 6 mps 742 mmHg 68%
    10:00 +8°C° 0.1 mm 7 mps 742 mmHg 65%
    11:00 +8°C° 0.1 mm 7 mps 742 mmHg 62%
    12:00 +9°C° 0.1 mm 7 mps 742 mmHg 59%
    13:00 +8°C° 0.1 mm 7 mps 742 mmHg 58%
    14:00 +8°C° 0.1 mm 7 mps 742 mmHg 58%
    15:00 +8°C° 0.1 mm 7 mps 742 mmHg 58%
    16:00 +8°C° 0.1 mm 7 mps 742 mmHg 59%
    17:00 +7°C° 0.1 mm 6 mps 742 mmHg 60%
    18:00 +7°C° 0.1 mm 6 mps 742 mmHg 61%
    19:00 +7°C° 0.1 mm 6 mps 743 mmHg 61%
    20:00 +7°C° 0.1 mm 6 mps 743 mmHg 61%
    21:00 +7°C° 0.1 mm 5 mps 743 mmHg 61%
    22:00 +7°C° 0 mm 5 mps 743 mmHg 61%
    23:00 +6°C° 0 mm 5 mps 743 mmHg 61%

    18 December, Tuesday

    Time Temperature Precipitation Wind Pressure Humidity
    00:00 +6°C° 0 mm 5 mps 743 mmHg 61%
    01:00 +6°C° 0 mm 5 mps 743 mmHg 61%
    02:00 +6°C° 0 mm 5 mps 743 mmHg 62%
    03:00 +6°C° 0 mm 4 mps 743 mmHg 63%
    04:00 +6°C° 0 mm 4 mps 743 mmHg 63%
    05:00 +6°C° 0 mm 4 mps 744 mmHg 64%
    06:00 +6°C° 0 mm 4 mps 744 mmHg 64%
    07:00 +6°C° 0 mm 4 mps 744 mmHg 64%
    08:00 +6°C° 0 mm 4 mps 745 mmHg 63%
    09:00 +7°C° 0 mm 4 mps 745 mmHg 63%
    10:00 +7°C° 0 mm 4 mps 745 mmHg 61%
    11:00 +7°C° 0 mm 4 mps 745 mmHg 60%
    12:00 +8°C° 0 mm 5 mps 745 mmHg 58%
    13:00 +8°C° 0.1 mm 5 mps 744 mmHg 59%
    14:00 +8°C° 0.1 mm 5 mps 744 mmHg 59%
    15:00 +8°C° 0.1 mm 5 mps 744 mmHg 59%
    16:00 +8°C° 0 mm 5 mps 744 mmHg 61%
    17:00 +8°C° 0 mm 5 mps 744 mmHg 62%
    18:00 +7°C° 0 mm 4 mps 745 mmHg 63%
    19:00 +8°C° 0 mm 4 mps 745 mmHg 63%
    20:00 +8°C° 0 mm 4 mps 745 mmHg 63%
    21:00 +8°C° 0 mm 4 mps 746 mmHg 62%
    22:00 +8°C° 0 mm 4 mps 746 mmHg 63%
    23:00 +8°C° 0 mm 4 mps 746 mmHg 63%

    19 December, Wednesday

    Time Temperature Precipitation Wind Pressure Humidity
    00:00 +8°C° 0 mm 4 mps 746 mmHg 63%
    01:00 +8°C° 0 mm 4 mps 746 mmHg 64%
    02:00 +8°C° 0 mm 4 mps 746 mmHg 64%
    03:00 +8°C° 0 mm 4 mps 746 mmHg 65%
    04:00 +8°C° 0 mm 4 mps 746 mmHg 64%
    05:00 +8°C° 0 mm 4 mps 746 mmHg 64%
    06:00 +9°C° 0 mm 3 mps 746 mmHg 64%
    07:00 +10°C° 0 mm 3 mps 746 mmHg 64%
    08:00 +10°C° 0 mm 3 mps 747 mmHg 63%
    09:00 +10°C° 0 mm 3 mps 747 mmHg 62%
    10:00 +11°C° 0 mm 3 mps 747 mmHg 59%
    11:00 +11°C° 0 mm 4 mps 747 mmHg 56%
    12:00 +12°C° 0 mm 4 mps 747 mmHg 53%
    13:00 +12°C° 0 mm 4 mps 747 mmHg 53%
    14:00 +12°C° 0 mm 4 mps 747 mmHg 53%
    15:00 +12°C° 0 mm 4 mps 747 mmHg 53%
    16:00 +12°C° 0 mm 3 mps 747 mmHg 55%
    17:00 +11°C° 0 mm 3 mps 747 mmHg 57%
    18:00 +10°C° 0 mm 2 mps 747 mmHg 60%
    19:00 +10°C° 0 mm 2 mps 747 mmHg 61%
    20:00 +10°C° 0 mm 2 mps 748 mmHg 62%
    21:00 +10°C° 0 mm 1 mps 748 mmHg 64%
    22:00 +10°C° 0 mm 1 mps 748 mmHg 64%
    23:00 +10°C° 0 mm 1 mps 748 mmHg 65%

    20 December, Thursday

    Time Temperature Precipitation Wind Pressure Humidity
    00:00 +10°C° 0 mm 1 mps 748 mmHg 65%
    01:00 +10°C° 0 mm 1 mps 748 mmHg 66%
    02:00 +10°C° 0 mm 1 mps 748 mmHg 66%
    03:00 +10°C° 0 mm 1 mps 748 mmHg 66%
    04:00 +10°C° 0 mm 1 mps 748 mmHg 66%
    05:00 +10°C° 0 mm 1 mps 748 mmHg 67%
    06:00 +10°C° 0 mm 1 mps 748 mmHg 67%
    07:00 +10°C° 0 mm 1 mps 748 mmHg 67%
    08:00 +10°C° 0 mm 1 mps 748 mmHg 66%
    09:00 +11°C° 0 mm 1 mps 749 mmHg 65%
    10:00 +11°C° 0 mm 1 mps 749 mmHg 61%
    11:00 +12°C° 0 mm 1 mps 748 mmHg 58%
    12:00 +13°C° 0 mm 1 mps 748 mmHg 54%
    13:00 +13°C° 0 mm 2 mps 748 mmHg 51%
    14:00 +13°C° 0 mm 2 mps 747 mmHg 48%
    15:00 +14°C° 0 mm 2 mps 747 mmHg 46%
    16:00 +13°C° 0 mm 2 mps 747 mmHg 48%
    17:00 +13°C° 0 mm 2 mps 747 mmHg 50%
    18:00 +12°C° 0 mm 2 mps 747 mmHg 52%
    19:00 +12°C° 0.1 mm 2 mps 747 mmHg 56%
    20:00 +12°C° 0.1 mm 2 mps 747 mmHg 60%
    21:00 +12°C° 0.1 mm 2 mps 747 mmHg 63%
    22:00 +12°C° 0.1 mm 2 mps 747 mmHg 67%
    23:00 +11°C° 0.1 mm 3 mps 746 mmHg 71%
    Show more